Waterloo Municipal Airport
Sunday 2:54 PM
Temperature77° (77°/47°)
Dew Point48°
Relative Humidity36
%
Visibility10
mi
Pressure1023.7
mb
Wind Direction
Wind Speed
Precipitation Today0.00"

Last 30 Observations

Time PresWx Temp DP Feels RH% Vsby Pressure Ceiling Direction Speed 1h Precip
2:54 PM 77° 48° 36
%
10
mi
1023.7
mb
0.00"
1:54 PM 75° 47° 37
%
10
mi
1024.7
mb
SSW
200°
9
mph
0.00"
12:54 PM 75° 47° 37
%
10
mi
1025.4
mb
S
190°
8
mph
0.00"
11:54 AM 73° 47° 39
%
10
mi
1025.7
mb
SSE
160°
9
mph
0.00"
10:54 AM 70° 46° 42
%
10
mi
1026.4
mb
10,000
ft
Variable 6
mph
0.00"
9:54 AM 67° 44° 44
%
10
mi
1026.8
mb
SE
140°
7
mph
0.00"
8:54 AM 64° 44° 48
%
10
mi
1026.8
mb
SSE
160°
7
mph
0.00"
7:54 AM 58° 46° 65
%
10
mi
1026.8
mb
E
100°
3
mph
0.00"
6:54 AM 53° 46° 77
%
10
mi
1026.4
mb
Calm 0.00"
5:54 AM 47° 42° 46°83
%
10
mi
1025.7
mb
NNE
20°
3
mph
0.00"
4:54 AM 48° 43° 83
%
10
mi
1025.1
mb
Calm 0.00"
3:54 AM 50° 44° 80
%
10
mi
1025.1
mb
NE
40°
3
mph
0.00"
2:54 AM 51° 44° 77
%
10
mi
1025.1
mb
Calm 0.00"
1:54 AM 54° 44° 69
%
10
mi
1025.1
mb
Calm 0.00"
12:54 AM 53° 44° 71
%
10
mi
1024.4
mb
ENE
60°
3
mph
0.00"
11:54 PM 58° 46° 65
%
10
mi
1024.4
mb
NE
50°
5
mph
0.00"
10:54 PM 57° 46° 67
%
10
mi
1024.1
mb
NE
40°
5
mph
0.00"
9:54 PM 58° 47° 67
%
10
mi
1023.7
mb
NE
40°
6
mph
0.00"
8:54 PM 63° 45° 52
%
10
mi
1023.0
mb
NNE
20°
6
mph
0.00"
7:54 PM 68° 44° 42
%
10
mi
1023.0
mb
N
360°
9
mph
0.00"
6:54 PM 71° 44° 38
%
10
mi
1023.0
mb
N
350°
8
mph
0.00"
5:54 PM 73° 45° 37
%
10
mi
1023.0
mb
N
350°
9
mph
0.00"
4:54 PM 71° 44° 38
%
10
mi
1023.4
mb
Variable 5
mph
0.00"
3:54 PM 74° 46° 37
%
10
mi
1023.4
mb
6,500
ft
NNE
30°
13
mph
0.00"
2:54 PM 73° 44° 35
%
10
mi
1023.7
mb
NNW
340°
6
mph
0.00"
1:54 PM 71° 43° 36
%
10
mi
1024.1
mb
N
360°
13
mph
0.00"
12:54 PM 70° 44° 39
%
10
mi
1024.4
mb
NNE
20°
15
mph
(G25)
0.00"
11:54 AM 69° 45° 42
%
10
mi
1024.4
mb
NNE
20°
11
mph
0.00"
10:54 AM 68° 46° 45
%
10
mi
1024.7
mb
NNE
20°
10
mph
0.00"
9:54 AM 66° 49° 54
%
10
mi
1024.7
mb
N
10°
9
mph
0.00"